CZ-6A DEB

Satellite information

Favourite Embed

Satellite Type and Status

DEBRISIN ORBIT

Key statistics

Satellite CZ-6A DEB at a glance.

Uptime

1129

Days in orbit

Revolutions

≈ 14.2

Per day

Orbit

SSO

Sun Synchronous Orbit

Inclination

98.8

Latest

Satellite identification and parameters

Extended collection of information and parameters for CZ-6A DEB.

Object identification

Identified? True

Debris? True

Object name: CZ-6A DEB

International designator: 2022-151MN

Object number (NORAD): 54586

Object ID (CCSDS): 54586

Country: PEOPLES REPUBLIC OF CHINA (PRC)

Current information (Y/N): Y

RCS size: SMALL

Orbital parameters

Period: 101.069 minutes

Inclination: 98.7687 deg

SMA: 7187.429 km

Apoapsis: 854.549 km

Periapsis: 764.039 km

RAAN: 1.9441 deg

Eccentricy: 0.00629643

Argument of periapsis: 159.2829 deg

Mean anomaly: 201.0924 deg

Mean motion: 14.24762259 rev/day

Mean motion (dot): 0.00002519 rev/day2

B* drag term: 0.0010776338 1/REarth

Two-line elements (TLE)

Creation date: Dec. 12, 2025, 10:14 a.m.

Reference frame: TEME

Reference center: EARTH

Epoch: Dec. 12, 2025, 6:29 a.m. UTC

TLE line 0: 0 CZ-6A DEB

TLE line 1: 1 54586U 22151MN 25346.27059057 .00002519 00000-0 10776-2 0 9994

TLE line 2: 2 54586 98.7687 1.9441 0062964 159.2829 201.0924 14.24762259159293

Live tracking on map

Real-time ground track for satellite CZ-6A DEB.

In-orbit conjunctions

A list of the most updated potential collisions computed for object CZ-6A DEB.

Target Orbit TCA Probability of collision Miss distance Type
CZ-6A DEB LEO 2025-02-18 16:27:25 0.0001227185 96.0 (m) DEBRIS
FENGYUN 1C DEB SSO 2024-11-11 04:27:45 0.0001074872 581.0 (m) DEBRIS

Associated space launch

Chinese satellite reported for atmospheric/ocean/environmental/spatial parameter research purposes, details TBD.

CZ-6A DEB was lifted into orbit during the mission ‘Long March 6A | Yunhai 3’, on board a Long March 6A space rocket.

The launch took place on Nov. 11, 2022, 10:52 p.m. from Launch Complex 9A.

For more information about the launch, click the button.

Launch to space Long March 6A | Yunhai 3
Long March 6A | Yunhai 3

Agency: N/A

Status: Launch Successful

Launch date: Nov. 11, 2022, 10:52 p.m. UTC

Rocket: Long March 6A

Launch pad: Launch Complex 9A

Location: Taiyuan Satellite Launch Center, People's Republic of China

...

Latest news about this satellite

There are no fresh news available about this satellite. Check back as we update our databases every day.


Newsletter sign-up

Weekly statistics, charts and insights to help you stay on top of the space industry.